DFIRE EDDG-EDLW

Flight info

Callsign DFIRE
Flight time 0h 14m
Altitude 2000
Route VFR
Aircraft PC12/L-S/L

Departure

Time 2026-05-04 15:55
Airport Münster Osnabrück Airport (EDDG)

Arrival

Time 2026-05-04 16:09
Airport Dortmund Airport (EDLW)
Time Latitude Longitude Altitude Speed Heading
2026-05-04 15:50 52.13095 7.68570 164 ft 0 kts
2026-05-04 15:52 52.13105 7.68554 164 ft 6 kts 270°
2026-05-04 15:52 52.13107 7.68424 164 ft 12 kts 293°
2026-05-04 15:53 52.13182 7.68361 164 ft 12 kts 341°
2026-05-04 15:53 52.13250 7.68323 164 ft 11 kts 341°
2026-05-04 15:53 52.13331 7.68278 164 ft 8 kts 338°
2026-05-04 15:53 52.13395 7.68248 165 ft 8 kts 354°
2026-05-04 15:54 52.13407 7.68209 165 ft 0 kts 252°
2026-05-04 15:54 52.13326 7.67827 162 ft 73 kts 251°
2026-05-04 15:54 52.13115 7.66805 378 ft 107 kts 254°
2026-05-04 15:55 52.12781 7.65563 800 ft 136 kts 230°
2026-05-04 15:55 52.11789 7.64906 1087 ft 179 kts 181°
2026-05-04 15:55 52.10512 7.65430 1231 ft 203 kts 161°
2026-05-04 15:55 52.09134 7.66073 1332 ft 207 kts 167°
2026-05-04 15:56 52.07802 7.66625 1487 ft 179 kts 165°
2026-05-04 15:56 52.06630 7.67184 1483 ft 174 kts 163°
2026-05-04 15:56 52.05477 7.67798 1424 ft 174 kts 162°
2026-05-04 15:56 52.04313 7.68340 1397 ft 174 kts 168°
2026-05-04 15:57 52.03149 7.68848 1527 ft 171 kts 164°
2026-05-04 15:57 52.02015 7.69419 1792 ft 172 kts 164°
2026-05-04 15:57 52.00825 7.69938 1973 ft 181 kts 169°
2026-05-04 15:57 51.99609 7.70338 2273 ft 178 kts 172°
2026-05-04 15:58 51.98352 7.70718 2305 ft 186 kts 171°
2026-05-04 15:58 51.97101 7.71079 2243 ft 182 kts 173°
2026-05-04 15:58 51.95851 7.71268 2218 ft 179 kts 178°
2026-05-04 15:58 51.94535 7.71378 2298 ft 197 kts 180°
2026-05-04 15:59 51.93211 7.71278 2299 ft 184 kts 186°
2026-05-04 15:59 51.91954 7.71105 2293 ft 181 kts 186°
2026-05-04 15:59 51.90702 7.70915 2293 ft 181 kts 186°
2026-05-04 15:59 51.89454 7.70726 2290 ft 180 kts 186°
2026-05-04 16:00 51.88208 7.70541 2296 ft 181 kts 186°
2026-05-04 16:00 51.86953 7.70343 2296 ft 181 kts 186°
2026-05-04 16:00 51.85699 7.70153 2297 ft 180 kts 186°
2026-05-04 16:00 51.84458 7.69980 2293 ft 179 kts 186°
2026-05-04 16:01 51.83219 7.69804 2299 ft 180 kts 186°
2026-05-04 16:01 51.81965 7.69611 2299 ft 183 kts 186°
2026-05-04 16:01 51.80698 7.69410 2299 ft 182 kts 186°
2026-05-04 16:01 51.79429 7.69209 2304 ft 191 kts 186°
2026-05-04 16:02 51.78065 7.68996 2308 ft 196 kts 187°
2026-05-04 16:02 51.76691 7.68804 2313 ft 201 kts 186°
2026-05-04 16:02 51.73996 7.68427 2298 ft 181 kts 186°
2026-05-04 16:03 51.72809 7.68277 2293 ft 164 kts 186°
2026-05-04 16:03 51.71715 7.68033 2165 ft 157 kts 194°
2026-05-04 16:03 51.70692 7.67637 2028 ft 154 kts 194°
2026-05-04 16:03 51.69619 7.67220 1974 ft 160 kts 193°
2026-05-04 16:04 51.68531 7.66842 1902 ft 159 kts 193°
2026-05-04 16:04 51.66343 7.66123 1525 ft 159 kts 197°
2026-05-04 16:04 51.65311 7.65550 1531 ft 156 kts 200°
2026-05-04 16:05 51.64267 7.64962 1474 ft 161 kts 199°
2026-05-04 16:05 51.63210 7.64395 1431 ft 159 kts 199°
2026-05-04 16:05 51.61246 7.63325 1323 ft 143 kts 200°
2026-05-04 16:06 51.60306 7.62703 1314 ft 148 kts 206°
2026-05-04 16:06 51.57573 7.61778 1388 ft 155 kts 162°
2026-05-04 16:07 51.56319 7.62751 1211 ft 142 kts 155°
2026-05-04 16:07 51.53879 7.63771 873 ft 101 kts 188°
2026-05-04 16:08 51.53172 7.63629 747 ft 102 kts 190°
2026-05-04 16:08 51.51915 7.61455 415 ft 79 kts 240°
2026-05-04 16:09 51.51597 7.60598 410 ft 17 kts 186°
2026-05-04 16:09 51.51556 7.60878 413 ft 16 kts 75°
2026-05-04 16:10 51.51509 7.61044 430 ft 11 kts 232°
2026-05-04 16:11 51.51314 7.60499 441 ft 17 kts 241°
2026-05-04 16:11 51.51253 7.60320 443 ft 20 kts 244°
2026-05-04 16:12 51.51170 7.60251 445 ft 11 kts 49°
2026-05-04 16:12 51.51282 7.60559 433 ft 4 kts 131°
2026-05-04 16:13 51.51268 7.60564 445 ft 0 kts 192°